Location: Vista Encantada
(35.1109°N, 106.5681°W)
Time: 09:04:21
(UTC+00:00)

Meteor 1-31 Rocket - Pass Details

Date: 29 October 2020
Orbit: 520 x 546 km, 97.6° (Epoch: 04 December)

Event Time Altitude Azimuth Distance (km) Brightness Sun altitude
Rises 12:06:24 0° 6° (N) 2,720 6.4 -16.6°
Reaches altitude 10° 12:08:34 10° 3° (N) 1,822 5.4 -16.2°
Maximum altitude 12:12:25 56° 285° (WNW) 651 2.8 -15.4°
Drops below altitude 10° 12:16:14 10° 206° (SSW) 1,801 5.2 -14.6°
Sets 12:18:22 0° 202° (SSW) 2,685 6.2 -14.2°
